Date,TemperatureHighF,TemperatureAvgF,TemperatureLowF,DewpointHighF,DewpointAvgF,DewpointLowF,HumidityHigh,HumidityAvg,HumidityLow,PressureMaxIn,PressureMinIn,WindSpeedMaxMPH,WindSpeedAvgMPH,GustSpeedMaxMPH,PrecipitationSumIn
2013-1-1,35,31,28,35,30,27,98,97,97,30.44,30.30,0,0,0,0.00
2013-1-2,37,31,28,37,30,28,99,97,95,30.30,30.14,0,0,0,0.00
2013-1-3,38,32,26,34,30,26,98,92,80,30.15,30.03,0,0,0,0.00
2013-1-4,47,41,34,46,41,33,99,98,96,30.26,30.10,0,0,0,0.00
2013-1-5,42,39,37,41,38,37,99,98,97,30.15,30.05,0,0,0,0.00
2013-1-6,44,40,38,43,39,38,99,98,96,30.13,29.94,0,0,0,0.00
2013-1-7,45,41,39,44,41,38,99,99,98,30.11,29.78,0,0,0,0.00
2013-1-8,43,41,40,43,41,40,99,99,99,30.11,29.82,0,0,0,0.00
2013-1-9,47,37,33,46,36,32,99,98,97,29.90,29.63,114,0,114,0.00
2013-1-10,35,33,30,34,32,30,98,98,97,30.05,29.89,0,0,0,0.00
2013-1-11,32,29,25,31,28,24,98,97,96,30.27,30.05,0,0,0,0.00
2013-1-12,31,26,23,30,25,22,97,96,95,30.38,30.25,0,0,0,0.00
2013-1-13,32,27,22,31,26,21,96,96,94,30.43,30.37,0,0,0,0.00
2013-1-14,33,32,29,32,31,28,97,97,96,30.51,30.41,0,0,0,0.00
2013-1-15,38,32,29,36,32,28,98,97,96,30.64,30.51,0,0,0,0.00
2013-1-16,36,29,25,35,28,24,98,97,97,30.62,30.46,0,0,0,0.00
2013-1-17,37,29,25,36,29,25,98,97,97,30.47,30.23,0,0,0,0.00
2013-1-18,34,29,25,33,29,24,98,97,97,30.29,30.20,0,0,0,0.00
2013-1-19,32,29,26,32,29,26,97,97,96,30.33,30.28,0,0,0,0.00
2013-1-20,34,28,23,33,27,22,97,96,95,30.34,30.21,0,0,0,0.00
2013-1-21,32,27,23,31,26,22,97,96,96,30.22,30.07,0,0,0,0.00
2013-1-22,35,29,24,34,28,22,98,96,95,30.11,29.84,0,0,0,0.00
2013-1-23,34,34,33,34,33,32,98,98,98,29.92,29.83,0,0,0,0.00
2013-1-25,41,37,35,40,36,34,98,98,97,29.91,29.88,0,0,0,0.00
2013-1-26,39,36,34,39,36,33,99,99,98,29.98,29.83,0,0,0,0.00
2013-1-27,39,36,35,39,36,34,99,98,97,30.00,29.94,0,0,0,0.00
2013-1-28,36,34,33,36,34,32,99,98,98,30.04,29.94,0,0,0,0.00
2013-1-29,36,35,35,36,35,35,99,99,99,30.10,30.03,0,0,0,0.00